Regional Weather Roundup
Issued by NWS

Home | Current Version | Previous Version | Text Only | Print | Product List | Glossary On
Versions: 1 2 3 4 5 6 7 8 9 10 11 12 13 14 15 16 17 18 19 20 21 22 23 24 25 26 27 28 29 30 31 32 33 34 35 36 37 38 39 40 41 42 43 44 45 46 47 48 49 50
689
ASUS44 KLIX 311205
RWRLA
LOUISIANA WEATHER ROUNDUP
NATIONAL WEATHER SERVICE NEW ORLEANS LA
600 AM CST SAT JAN 31 2015

NOTE: "FAIR" INDICATES FEW OR NO CLOUDS BELOW 12,000 FEET WITH NO
      SIGNIFICANT WEATHER AND/OR OBSTRUCTIONS TO VISIBILITY.
      SKY/WX - SKY CONDITION AND SIGNIFICANT WEATHER.
      TMP - AIR TEMPERATURE.    DP   - DEWPOINT TEMPERATURE.
      RH  - RELATIVE HUMIDITY.  PRES - PRESSURE.
      HX  - HEAT INDEX.         WCI  - WIND CHILL INDEX.

*  THESE STATIONS ARE NOT NWS OR FAA STATIONS AND ARE NOT UNDER
   NWS QUALITY CONTROL.

LAZ040-048-061>063-065-066-069-311300-
SOUTHEAST LOUISIANA

CITY           SKY/WX    TMP DP  RH WIND       PRES   REMARKS
N.O. AUDUBON     N/A     46  38  73 MISG        N/A
6HR MIN TEMP:  46; 6HR MAX TEMP:  53; 6HR PCP:  4.55;

N.O. INTL ARPT PTCLDY    45  34  65 E7        30.29R
6HR MIN TEMP:  45; 6HR MAX TEMP:  52;

N.O. LAKEFRONT CLEAR     48  37  65 E15       30.30R
6HR MIN TEMP:  48; 6HR MAX TEMP:  54;

N.O. DOWNTOWN* NOT AVBL
SLIDELL        CLEAR     34  30  85 N3        30.30R
6HR MIN TEMP:  34; 6HR MAX TEMP:  41;

BATON ROUGE    CLEAR     37  30  75 E8        30.29R WCI  31
6HR MIN TEMP:  36; 6HR MAX TEMP:  42;

BOOTHVILLE     CLEAR     51  44  77 NE7       30.28R
6HR MIN TEMP:  51; 6HR MAX TEMP:  53;

BELLE CHASSE   PTCLDY    43  35  73 NE7       30.28S
6HR MIN TEMP:  37; 6HR MAX TEMP:  46;

BOGALUSA*        N/A     32  29  89 CALM      30.32R
6HR MIN TEMP:  32; 6HR MAX TEMP:  37;

GALLIANO*      SUNNY     51  43  74 NE3       30.27S
6HR MIN TEMP:  51; 6HR MAX TEMP:  53;

NEW ROADS*     FAIR      40  30  68 E7        30.29R WCI  35
6HR MIN TEMP:  40; 6HR MAX TEMP:  42;

GONZALES*      FAIR      40  34  77 CALM      30.28S
6HR MIN TEMP:  40; 6HR MAX TEMP:  46;

HAMMOND*       CLEAR     34  32  93 CALM      30.32R
HOUMA*         CLEAR     41  37  87 NE6       30.27S
PORT FOURCHON* SUNNY     54  46  76 NE12      30.28S

$$

LAZ041-044-053-054-311300-
SOUTHWEST LOUISIANA

CITY           SKY/WX    TMP DP  RH WIND       PRES   REMARKS
LAKE CHARLES   CLEAR     40  36  86 E8        30.25F WCI  34
6HR MIN TEMP:  39; 6HR MAX TEMP:  44;

LAFAYETTE      CLEAR     43  33  68 E3        30.28R
6HR MIN TEMP:  41; 6HR MAX TEMP:  44;

PATTERSON      CLEAR     43  36  75 E7        30.27S
6HR MIN TEMP:  43; 6HR MAX TEMP:  45;

SALT POINT       N/A     43  38  82 E3        30.25R
6HR MIN TEMP:  41; 6HR MAX TEMP:  45;

NEW IBERIA     CLEAR     43  34  70 NE7       30.28R
6HR MIN TEMP:  42; 6HR MAX TEMP:  47;

CHENAULT AIRPK CLEAR     36  36 100 E6        30.26  WCI  31

$$

LAZ027-028-311300-
CENTRAL LOUISIANA

CITY           SKY/WX    TMP DP  RH WIND       PRES   REMARKS
FORT POLK      CLEAR     40  33  76 E8        30.26S WCI  34
6HR MIN TEMP:  40; 6HR MAX TEMP:  45;

ALEXANDRIA INT PTCLDY    39  33  79 E5        30.28S
6HR MIN TEMP:  39; 6HR MAX TEMP:  43;

ALEXANDRIA     MOCLDY    38  33  82 E3        30.30R
6HR MIN TEMP:  35; 6HR MAX TEMP:  41;


$$

LAZ001-002-311300-
NORTHWEST LOUISIANA

CITY           SKY/WX    TMP DP  RH WIND       PRES   REMARKS
SHREVEPORT     CLOUDY    42  32  67 E7        30.27F
6HR MIN TEMP:  42; 6HR MAX TEMP:  47;

BARKSDALE AFB  CLOUDY    42  30  62 E3        30.29S
6HR MIN TEMP:  40; 6HR MAX TEMP:  45;

DTN SHREVEPORT CLOUDY    41  30  65 E6        30.29S
6HR MIN TEMP:  41; 6HR MAX TEMP:  45;


$$

LAZ014-016-311300-
NORTHEAST LOUISIANA

CITY           SKY/WX    TMP DP  RH WIND       PRES   REMARKS
MONROE         MOCLDY    38  31  76 NE5       30.33S WCI  34
6HR MIN TEMP:  35; 6HR MAX TEMP:  40;

TALLULAH       PTCLDY    35  29  78 CALM      30.34F
6HR MIN TEMP:  34; 6HR MAX TEMP:  40;


$$




USA.gov is the U.S. government's official web portal to all federal, state and local government web resources and services.